Date String (YYYY-MM-DD hh:mm:ss) UTC,Instrument flags,Ambient pressure (hPa),Sample flow (lpm),Bypass flow (lpm),Sample temperature (°C),Ambient temperature (°C),ASC tube jacket temperature (°C),LED temperature (°C),Box temperature (°C),Sample RH (%),Span deviation,Mass concentration (μg/m³),Mass concentration (μg/m³),Mass concentration (μg/m³)
DateTimeUTC,F1_M11,P_M11,Q1_M11,Q2_M11,T1_M11,T2_M11,T3_M11,T4_M11,T5_M11,U1_M11,ZSPAN_M11,X0_M11,X2_M11,X1_M11
2022-03-18 01:00:00,,0828.4,5.01,0.00,22.1,21.3,00.0,31.1,23.8,18.7,0000.0,0005.52,0003.29,0002.95
2022-03-18 01:01:00,,0828.4,5.00,0.00,22.1,21.3,00.0,31.1,23.8,18.8,0000.0,0005.40,0003.28,0002.97
2022-03-18 01:02:00,,0828.4,5.00,0.00,22.1,21.4,00.0,31.1,23.8,18.7,0000.0,0005.26,0003.27,0002.99
2022-03-18 01:03:00,,0828.4,4.99,0.00,22.1,21.9,00.0,31.1,24.0,18.7,0000.0,0005.47,0003.30,0003.01
2022-03-18 01:04:00,,0828.4,5.00,0.00,22.3,22.6,00.0,31.2,24.2,18.5,0000.0,0005.78,0003.35,0003.06
2022-03-18 01:05:00,,0828.4,5.00,0.00,22.4,23.0,00.0,31.2,24.4,18.4,0000.0,0005.90,0003.37,0003.10
2022-03-18 01:06:00,,0828.4,4.99,0.00,22.4,22.8,00.0,31.2,24.4,18.3,0000.0,0005.89,0003.38,0003.13
2022-03-18 01:07:00,,0828.4,5.01,0.00,22.4,22.6,00.0,31.3,24.4,18.3,0000.0,0005.90,0003.38,0003.15
2022-03-18 01:08:00,,0828.4,5.01,0.00,22.4,22.4,00.0,31.3,24.3,18.3,0000.0,0005.90,0003.40,0003.16
2022-03-18 01:09:00,,0828.4,5.00,0.00,22.4,22.3,00.0,31.3,24.3,18.3,0000.0,0005.29,0003.40,0003.18
2022-03-18 01:10:00,,0828.4,4.99,0.00,22.4,22.1,00.0,31.3,24.2,18.3,0000.0,0005.15,0003.40,0003.18
2022-03-18 01:11:00,,0828.4,5.01,0.00,22.4,22.0,00.0,31.3,24.2,18.3,0000.0,0005.10,0003.39,0003.18
2022-03-18 01:12:00,,0828.4,4.99,0.00,22.4,21.9,00.0,31.3,24.1,18.3,0000.0,0005.14,0003.40,0003.17
2022-03-18 01:13:00,,0828.4,5.00,0.00,22.4,21.9,00.0,31.3,24.1,18.4,0000.0,0005.10,0003.38,0003.15
2022-03-18 01:14:00,,0828.4,5.00,0.00,22.3,21.8,00.0,31.3,24.1,18.4,0000.0,0004.94,0003.34,0003.13
2022-03-18 01:15:00,,0828.4,5.00,0.00,22.3,21.7,00.0,31.3,24.1,18.4,0000.0,0004.65,0003.29,0003.08
2022-03-18 01:16:00,,0828.4,5.00,0.00,22.3,21.7,00.0,31.3,24.1,18.4,0000.0,0004.45,0003.26,0003.04
2022-03-18 01:17:00,,0828.5,5.00,0.00,22.3,21.7,00.0,31.3,24.1,18.4,0000.0,0004.55,0003.25,0002.99
2022-03-18 01:18:00,,0828.5,4.99,0.00,22.3,21.6,00.0,31.3,24.0,18.5,0000.0,0005.01,0003.22,0002.94
2022-03-18 01:19:00,,0828.4,5.00,0.00,22.3,21.6,00.0,31.3,24.0,18.5,0000.0,0004.95,0003.20,0002.91
2022-03-18 01:20:00,,0828.4,5.00,0.00,22.3,21.6,00.0,31.3,24.0,18.5,0000.0,0004.95,0003.19,0002.86
2022-03-18 01:21:00,,0828.5,5.00,0.00,22.2,21.6,00.0,31.3,24.0,18.5,0000.0,0004.85,0003.18,0002.84
2022-03-18 01:22:00,,0828.4,5.00,0.00,22.2,21.5,00.0,31.3,24.0,18.5,0000.0,0004.77,0003.16,0002.82
2022-03-18 01:23:00,,0828.4,5.00,0.00,22.2,21.5,00.0,31.3,24.0,18.5,0000.0,0004.70,0003.14,0002.82
2022-03-18 01:24:00,,0828.4,4.99,0.00,22.2,21.5,00.0,31.3,24.0,18.5,0000.0,0004.77,0003.15,0002.82
2022-03-18 01:25:00,,0828.4,5.00,0.00,22.2,21.5,00.0,31.3,23.9,18.5,0000.0,0004.87,0003.17,0002.80
2022-03-18 01:26:00,,0828.4,5.01,0.00,22.2,21.5,00.0,31.3,23.9,18.6,0000.0,0004.85,0003.17,0002.79
2022-03-18 01:27:00,,0828.4,5.01,0.00,22.2,21.5,00.0,31.2,23.9,18.5,0000.0,0004.75,0003.14,0002.76
2022-03-18 01:28:00,,0828.5,5.00,0.00,22.2,21.4,00.0,31.2,23.9,18.5,0000.0,0004.52,0003.07,0002.72
2022-03-18 01:29:00,,0828.4,5.00,0.00,22.1,21.4,00.0,31.2,23.9,18.5,0000.0,0004.54,0003.04,0002.70
2022-03-18 01:30:00,,0828.4,5.00,0.00,22.1,21.4,00.0,31.2,23.9,18.5,0000.0,0004.24,0003.02,0002.65
2022-03-18 01:31:00,,0828.4,5.00,0.00,22.1,21.4,00.0,31.2,23.8,18.4,0000.0,0004.23,0002.99,0002.62
2022-03-18 01:32:00,,0828.4,5.01,0.00,22.1,21.4,00.0,31.2,23.8,18.4,0000.0,0004.12,0002.91,0002.57
2022-03-18 01:33:00,,0828.4,5.00,0.00,22.1,21.4,00.0,31.2,23.9,18.4,0000.0,0004.05,0002.86,0002.54
2022-03-18 01:34:00,,0828.4,5.00,0.00,22.1,21.3,00.0,31.2,23.8,18.3,0000.0,0004.09,0002.85,0002.49
2022-03-18 01:35:00,,0828.4,5.00,0.00,22.1,21.3,00.0,31.2,23.8,18.3,0000.0,0004.10,0002.82,0002.46
2022-03-18 01:36:00,,0828.5,5.00,0.00,22.1,21.3,00.0,31.2,23.8,18.3,0000.0,0004.00,0002.75,0002.41
2022-03-18 01:37:00,,0828.4,4.99,0.00,22.1,21.3,00.0,31.2,23.9,18.2,0000.0,0004.02,0002.71,0002.37
2022-03-18 01:38:00,,0828.8,5.01,0.00,22.1,21.3,00.0,31.2,23.8,18.2,0000.0,0004.19,0002.74,0002.36
2022-03-18 01:39:00,,0828.9,5.00,0.00,22.1,21.3,00.0,31.1,23.8,18.1,0000.0,0004.36,0002.78,0002.35
2022-03-18 01:40:00,,0829.1,5.00,0.00,22.1,21.4,00.0,31.1,23.8,18.1,0000.0,0004.09,0002.78,0002.34
2022-03-18 01:41:00,,0829.0,5.00,0.00,22.2,21.9,00.0,31.2,24.0,18.0,0000.0,0004.00,0002.76,0002.33
2022-03-18 01:42:00,,0828.7,5.00,0.00,22.3,22.7,00.0,31.2,24.2,17.8,0000.0,0004.06,0002.76,0002.31
2022-03-18 01:43:00,,0828.6,5.00,0.00,22.4,22.9,00.0,31.3,24.4,17.7,0000.0,0004.21,0002.79,0002.29
2022-03-18 01:44:00,,0828.6,5.01,0.00,22.4,22.7,00.0,31.3,24.4,17.7,0000.0,0004.23,0002.79,0002.28
2022-03-18 01:45:00,,0828.6,4.99,0.00,22.4,22.5,00.0,31.3,24.3,17.7,0000.0,0004.18,0002.78,0002.29
2022-03-18 01:46:00,,0828.7,5.00,0.00,22.4,22.3,00.0,31.3,24.2,17.7,0000.0,0004.10,0002.76,0002.29
2022-03-18 01:47:00,,0828.7,5.00,0.00,22.3,22.1,00.0,31.3,24.1,17.9,0000.0,0004.14,0002.76,0002.33
2022-03-18 01:48:00,,0828.6,5.00,0.00,22.3,21.9,00.0,31.3,24.0,18.1,0000.0,0004.13,0002.79,0002.35
2022-03-18 01:49:00,,0828.6,4.99,0.00,22.2,21.8,00.0,31.3,24.0,18.2,0000.0,0004.10,0002.79,0002.37
2022-03-18 01:50:00,,0828.8,5.02,0.00,22.2,21.6,00.0,31.3,23.9,18.3,0000.0,0003.85,0002.73,0002.39
2022-03-18 01:51:00,,0828.9,5.00,0.00,22.1,21.5,00.0,31.2,23.8,18.5,0000.0,0003.79,0002.71,0002.41
2022-03-18 01:52:00,,0828.7,4.99,0.00,22.1,21.4,00.0,31.2,23.8,18.6,0000.0,0003.76,0002.71,0002.43
2022-03-18 01:53:00,,0828.6,4.99,0.00,22.0,21.3,00.0,31.2,23.7,18.7,0000.0,0003.79,0002.74,0002.45
2022-03-18 01:54:00,,0828.7,4.99,0.00,22.0,21.2,00.0,31.2,23.6,18.8,0000.0,0003.65,0002.73,0002.49
2022-03-18 01:55:00,,0828.7,5.00,0.00,21.9,21.2,00.0,31.2,23.6,18.9,0000.0,0003.71,0002.77,0002.51
2022-03-18 01:56:00,,0828.7,5.00,0.00,21.9,21.1,00.0,31.1,23.5,19.0,0000.0,0003.73,0002.77,0002.52
2022-03-18 01:57:00,,0828.7,5.01,0.00,21.8,21.0,00.0,31.1,23.5,19.0,0000.0,0003.69,0002.76,0002.52
2022-03-18 01:58:00,,0828.7,5.00,0.00,21.8,21.0,00.0,31.1,23.4,19.1,0000.0,0003.62,0002.76,0002.53
2022-03-18 01:59:00,,0828.7,5.00,0.00,21.8,20.9,00.0,31.0,23.3,19.2,0000.0,0003.61,0002.77,0002.53
